{"data":{"norad_id":48972,"intl_designator":"2021-060F","name":"ONEWEB-0254","alt_names":[],"object_type":"PAYLOAD","status":"ACTIVE","operator":null,"country":"UK","launch_date":"2021-07-01","launch_site_code":"VOSTO","launch_vehicle":null,"mission":null,"orbit_class":"UNKNOWN","rcs_meters":null,"size_class":null,"mass_kg":null,"dimensions":null,"purposes":["comms"],"wikipedia_slug":null,"has_3d_model":false,"image_url":null,"decayed_at":null,"tle_current":{"epoch":"2026-09-20T03:42:18.811296Z","epoch_age_seconds":51785,"freshness":"FRESH","line1":"1 48972U 21060F   26263.15438439  .00000022  00000+0  23035-4 0  9995","line2":"2 48972  87.9156 209.9201 0001850  68.6439 291.4890 13.16593349252085","mean_motion":13.16593349,"eccentricity":0.000185,"inclination_deg":87.9156,"raan_deg":209.9201,"arg_perigee_deg":68.6439,"mean_anomaly_deg":291.489,"bstar":2.3035e-5,"rev_number":25208,"period_min":109.37317897692,"perigee_km":1196.3586093078,"apogee_km":1199.1616912534,"semimajor_km":7575.8971502806,"source":"CELESTRAK","updated_at":"2026-09-20T09:00:44.623912Z"}}}